{"data":{"norad_id":64526,"epoch":"2026-09-21T21:32:26.053728Z","epoch_age_seconds":60999,"freshness":"FRESH","line1":"1 64526U 25134AC  26264.89752377  .00002077  00000+0  30124-3 0  9994","line2":"2 64526  51.9027  30.3833 0000494 124.0230 236.0779 14.79941854 69908","mean_motion":14.79941854,"eccentricity":4.94e-5,"inclination_deg":51.9027,"raan_deg":30.3833,"arg_perigee_deg":124.023,"mean_anomaly_deg":236.0779,"bstar":0.00030124,"rev_number":6990,"period_min":97.301120047923,"perigee_km":629.1615017832,"apogee_km":629.85385707753,"semimajor_km":7007.6446794304,"source":"CELESTRAK","updated_at":"2026-09-22T09:00:29.813913Z"}}